(706) 295-7835

For Pilots

METAR

KRMG 221153Z AUTO VRB04KT 10SM CLR 00/M11 A3050 RMK AO2 SLP330 T00001106 10000 21044 53010

Location & Communications

Get detailed information about the airport, provided by AirNav.

Pilot Services

We have fuel services, on-site repair and maintenance, 24-hour security and more.

Fuel Points

Russell Regional Airport is a Shell Aviation merchant and is proud to participate in the Shell Aero Class Rewards program!

Today's Fuel Prices

Jet A $4.98 / gallon
AvGas (100LL) $4.65 / gallon
Self Serve AvGas $4.27 / gallon
Learn about fuel points program